Location: Melbourne
(37.8170°S, 144.9670°E)
Time: 23:46:21
(UTC+10:00)

Explorer 11/Cluster Stage 4 - Visible Passes

Search period start: 28 May 2016 00:00
Search period end: 07 June 2016 00:00
Orbit: 467 x 1266 km, 28.8° (Epoch: 27 May)

Date Brightness Start Highest point End Pass type
(mag) Time Alt. Az. Time Alt. Az. Time Alt. Az.
28 May 7.6 18:31:47 10° NW 18:34:36 20° N 18:36:34 15° NE visible
29 May 7.6 18:22:15 10° NW 18:25:03 21° N 18:27:36 12° NE visible
30 May 7.6 18:12:44 10° NW 18:15:31 21° N 18:18:25 10° NE visible
30 May 8.8 20:00:46 10° NW 20:00:54 11° NW 20:00:54 11° NW visible
31 May 7.6 18:03:12 10° NW 18:05:59 20° N 18:08:49 10° NE visible
31 May 8.6 19:51:36 10° NW 19:52:02 12° NW 19:52:02 12° NW visible
01 Jun 7.7 17:53:40 10° NW 17:56:27 20° N 17:59:13 10° NE visible
01 Jun 8.5 19:42:33 10° NW 19:43:14 12° NNW 19:43:14 12° NNW visible
02 Jun 7.9 17:44:08 10° NW 17:46:55 19° N 17:49:37 10° NE visible
02 Jun 8.5 19:33:58 10° NNW 19:34:30 10° NNW 19:34:30 10° NNW visible
03 Jun 8.0 17:34:37 10° NW 17:37:22 19° N 17:40:00 10° NE visible
